Clarks Point AP, Clarks Point, AK

12:22 AM AKST on November 18, 2019 (GMT -0900)
Clarks Point AP, Clarks Point

Weather History for PFCL - October, 2019

Change the Weather History Date:

Sunday, October 20, 2019

  Actual Average (PADL) Record (PADL)
Temperature  
Mean Temperature 36 °F -  
Max Temperature 43 °F 36 °F 52 °F (1957)
Min Temperature 30 °F 25 °F 4 °F (1958)
Degree Days  
Heating Degree Days 28    
Moisture  
Dew Point 36 °F    
Average Humidity 99    
Maximum Humidity 100    
Minimum Humidity 87    
Precipitation  
Precipitation 0.07 in - - ()
Sea Level Pressure  
Sea Level Pressure 29.58 in    
Wind  
Wind Speed 7 mph (ENE)    
Max Wind Speed 13 mph    
Max Gust Speed -    
Visibility 8 miles    
Events Fog , Rain    
Averages and records for this station are not official NWS values.
T = Trace of Precipitation, MM = Missing Value Source: NWS Daily Summary

Daily Weather History Graph

Daily Weather History Graph

Search for Another Location

Airport or City:

Astronomy

Oct. 20, 2019 Rise Set
Actual Time 9:22 AM AKDT 7:13 PM AKDT
Civil Twilight 8:41 AM AKDT 7:55 PM AKDT
Nautical Twilight 7:54 AM AKDT 8:41 PM AKDT
Astronomical Twilight 7:08 AM AKDT 9:28 PM AKDT
Moon 11:34 PM AKDT (10/20) 5:03 PM AKDT (10/20)
Length of Visible Light 11h 13m
Length of Day
9h 51m
Waning Gibbous, 58% of the Moon is Illuminated
Oct 20
Waning Gibbous
Oct 21
Last Quarter
Oct 27
New
Nov 4
First Quarter
Nov 12
Full

Hourly Weather History & Observations

Time (AKDT) Temp. Windchill Dew Point Humidity Pressure Visibility Wind Dir Wind Speed Gust Speed Precip Events Conditions
12:16 AM 32.0 °F - 28.4 °F 87% 29.56 in 10.0 mi Calm Calm - 0.00 in   Overcast
12:29 AM 32.0 °F 27.5 °F 28.4 °F 87% 29.56 in 10.0 mi NE 4.6 mph - 0.00 in   Overcast
12:56 AM 33.1 °F 28.7 °F 30.9 °F 92% 29.55 in 10.0 mi NE 4.6 mph - 0.01 in   Overcast
1:07 AM 33.8 °F 29.6 °F 32.0 °F 93% 29.56 in 10.0 mi ENE 4.6 mph - 0.00 in Rain Light Rain
2:56 AM 33.1 °F 25.5 °F 33.1 °F 100% 29.55 in 10.0 mi East 9.2 mph - 0.01 in Rain Light Rain
3:56 AM 34.0 °F 26.6 °F 34.0 °F 100% 29.55 in 10.0 mi East 9.2 mph - 0.01 in   Overcast
4:56 AM 34.0 °F 26.6 °F 34.0 °F 100% 29.54 in 10.0 mi East 9.2 mph - 0.00 in   Overcast
5:14 AM 33.8 °F 25.8 °F 33.8 °F 100% 29.56 in 10.0 mi East 10.4 mph - 0.01 in   Overcast
5:31 AM 33.8 °F 25.3 °F 33.8 °F 100% 29.56 in 10.0 mi East 11.5 mph - 0.01 in Rain Light Rain
5:43 AM 35.6 °F 27.1 °F 35.6 °F 100% 29.56 in 10.0 mi East 12.7 mph - 0.01 in Rain Light Rain
6:07 AM 35.6 °F 27.1 °F 35.6 °F 100% 29.55 in 10.0 mi East 12.7 mph - 0.01 in Rain Light Rain
6:43 AM 35.6 °F 27.1 °F 35.6 °F 100% 29.55 in 10.0 mi East 12.7 mph - 0.02 in Rain Light Rain
6:56 AM 36.0 °F 28.0 °F 36.0 °F 100% 29.54 in 10.0 mi ESE 11.5 mph - 0.03 in Rain Light Rain
7:04 AM 35.6 °F 29.2 °F 35.6 °F 100% 29.56 in 10.0 mi SE 8.1 mph - 0.00 in Rain Light Rain
7:26 AM 35.6 °F 29.9 °F 35.6 °F 100% 29.56 in 10.0 mi ESE 6.9 mph - 0.01 in Rain Light Rain
7:34 AM 35.6 °F 29.2 °F 35.6 °F 100% 29.56 in 10.0 mi ESE 8.1 mph - 0.01 in Rain Light Rain
7:56 AM 36.0 °F 29.0 °F 36.0 °F 100% 29.54 in 10.0 mi East 9.2 mph - 0.01 in   Overcast
8:45 AM 37.4 °F 30.8 °F 37.4 °F 100% 29.55 in 10.0 mi East 9.2 mph - 0.01 in   Overcast
9:39 AM 37.4 °F 32.1 °F 37.4 °F 100% 29.56 in 10.0 mi ESE 6.9 mph - N/A   Overcast
9:56 AM 37.9 °F 32.1 °F 37.9 °F 100% 29.55 in 10.0 mi SSE 8.1 mph - N/A   Overcast
10:35 AM 39.2 °F 32.5 °F 39.2 °F 100% 29.57 in 10.0 mi SW 10.4 mph - N/A   Overcast
10:44 AM 37.4 °F 30.3 °F 37.4 °F 100% 29.57 in 10.0 mi SW 10.4 mph - N/A   Overcast
11:34 AM 37.4 °F 31.4 °F 37.4 °F 100% 29.59 in 2.0 mi West 8.1 mph - N/A   Overcast
11:56 AM 37.9 °F 31.5 °F 37.9 °F 100% 29.58 in 2.5 mi West 9.2 mph - N/A   Overcast
12:04 PM 37.4 °F 30.8 °F 37.4 °F 100% 29.60 in 1.2 mi West 9.2 mph - N/A   Overcast
12:24 PM 37.4 °F 31.4 °F 37.4 °F 100% 29.60 in 2.5 mi WNW 8.1 mph - N/A   Overcast
12:34 PM 37.4 °F 32.1 °F 37.4 °F 100% 29.60 in 3.0 mi WNW 6.9 mph - N/A   Overcast
1:07 PM 37.4 °F 31.4 °F 37.4 °F 100% 29.61 in 6.0 mi WNW 8.1 mph - N/A   Overcast
1:56 PM 39.0 °F 33.4 °F 39.0 °F 100% 29.60 in 10.0 mi NNW 8.1 mph - N/A   Overcast
2:22 PM 39.2 °F 37.0 °F 39.2 °F 100% 29.61 in 10.0 mi NW 3.5 mph - N/A   Overcast
2:56 PM 39.9 °F 35.8 °F 39.9 °F 100% 29.60 in 10.0 mi NNW 5.8 mph - N/A   Overcast
3:48 PM 42.8 °F 41.1 °F 42.8 °F 100% 29.61 in 10.0 mi Variable 3.5 mph - N/A   Scattered Clouds
4:06 PM 42.8 °F 41.1 °F 42.8 °F 100% 29.61 in 10.0 mi North 3.5 mph - N/A   Mostly Cloudy
4:49 PM 42.8 °F 40.1 °F 42.8 °F 100% 29.60 in 10.0 mi NNE 4.6 mph - N/A   Scattered Clouds
4:56 PM 43.0 °F - 43.0 °F 100% 29.59 in 10.0 mi Calm Calm - N/A   Partly Cloudy
5:56 PM 41.0 °F 38.0 °F 37.9 °F 89% 29.58 in 10.0 mi NE 4.6 mph - N/A   Clear
6:56 PM 36.0 °F 31.1 °F 35.1 °F 97% 29.58 in 10.0 mi ENE 5.8 mph - N/A   Clear
7:56 PM 34.0 °F 29.8 °F 34.0 °F 100% 29.58 in 10.0 mi ENE 4.6 mph - N/A   Clear
8:05 PM 33.8 °F 28.6 °F 33.8 °F 100% 29.60 in 10.0 mi ENE 5.8 mph - N/A   Scattered Clouds
8:10 PM 33.8 °F 28.6 °F 33.8 °F 100% 29.60 in 2.5 mi ENE 5.8 mph - N/A   Mostly Cloudy
8:13 PM 33.8 °F 28.6 °F 33.8 °F 100% 29.60 in 1.0 mi NE 5.8 mph - N/A   Mostly Cloudy
8:17 PM 33.8 °F 29.6 °F 33.8 °F 100% 29.60 in 0.5 mi East 4.6 mph - N/A Fog Fog
8:32 PM 33.8 °F 28.6 °F 33.8 °F 100% 29.60 in 0.2 mi East 5.8 mph - N/A Fog Fog
8:56 PM 34.0 °F 28.0 °F 34.0 °F 100% 29.58 in 0.2 mi NE 6.9 mph - N/A Fog Fog
10:06 PM 32.0 °F 25.6 °F 32.0 °F 100% 29.59 in 1.0 mi ENE 6.9 mph - N/A   Overcast
10:13 PM 32.0 °F 24.8 °F 32.0 °F 100% 29.60 in 0.5 mi ENE 8.1 mph - N/A Fog Fog
10:49 PM 32.0 °F 25.6 °F 32.0 °F 100% 29.59 in 1.0 mi NE 6.9 mph - N/A   Overcast
10:56 PM 30.9 °F 25.2 °F 30.9 °F 100% 29.57 in 1.8 mi NE 5.8 mph - N/A   Overcast
11:56 PM 30.9 °F 25.2 °F 30.9 °F 100% 29.57 in 10.0 mi NNE 5.8 mph - N/A   Mostly Cloudy